| time (UTC) | temp F | wind direction | speed knots | gust knots | rain 1hr in | rain 24hr in | rain mn in | humidity % | barometer mb |
| 20260503220333 | 60 | 235 | 1.7 | 7.0 | 0.00 | 0.00 | 0.00 | 29 | 1009.0 |
| 20260503214829 | 60 | 293 | 1.7 | 5.2 | 0.00 | 0.00 | 0.00 | 29 | 1009.2 |
| 20260503213340 | 60 | 285 | 0.9 | 7.0 | 0.00 | 0.00 | 0.00 | 31 | 1009.0 |
| 20260503211836 | 60 | 262 | 1.7 | 7.0 | 0.00 | 0.00 | 0.00 | 31 | 1008.9 |
| 20260503210327 | 59 | 285 | 1.7 | 6.1 | 0.00 | 0.00 | 0.00 | 29 | 1009.0 |
| 20260503204841 | 59 | 282 | 3.5 | 8.7 | 0.00 | 0.00 | 0.00 | 30 | 1008.8 |
| 20260503203333 | 59 | 281 | 0.9 | 7.8 | 0.00 | 0.00 | 0.00 | 30 | 1008.7 |
| 20260503201826 | 59 | 356 | 1.7 | 13.0 | 0.00 | 0.00 | 0.00 | 31 | 1008.9 |
| 20260503200342 | 58 | 297 | 3.5 | 9.6 | 0.00 | 0.00 | 0.00 | 31 | 1008.9 |
| 20260503194832 | 58 | 248 | 1.7 | 10.4 | 0.00 | 0.00 | 0.00 | 32 | 1009.1 |
| 20260503193329 | 59 | 105 | 1.7 | 6.1 | 0.00 | 0.00 | 0.00 | 34 | 1009.2 |
| 20260503191842 | 58 | 236 | 0.9 | 9.6 | 0.00 | 0.00 | 0.00 | 33 | 1009.4 |
| 20260503190333 | 58 | 226 | 0.9 | 7.8 | 0.00 | 0.00 | 0.00 | 36 | 1009.5 |
| 20260503184829 | 58 | 276 | 1.7 | 7.0 | 0.00 | 0.00 | 0.00 | 36 | 1009.7 |
| 20260503183400 | 57 | 349 | 2.6 | 8.7 | 0.00 | 0.00 | 0.00 | 35 | 1010.0 |
| 20260503181834 | 56 | 260 | 1.7 | 4.3 | 0.00 | 0.00 | 0.00 | 39 | 1010.0 |
| 20260503180327 | 54 | 284 | 0.9 | 7.0 | 0.00 | 0.00 | 0.00 | 39 | 1010.0 |
| 20260503174843 | 55 | 294 | 2.6 | 7.8 | 0.00 | 0.00 | 0.00 | 38 | 1010.1 |
| 20260503173334 | 56 | 287 | 0.9 | 4.3 | 0.00 | 0.00 | 0.00 | 40 | 1010.2 |
| 20260503171825 | 55 | 238 | 0.9 | 6.1 | 0.00 | 0.00 | 0.00 | 39 | 1010.1 |
| 20260503170342 | 54 | 62 | 2.6 | 7.0 | 0.00 | 0.00 | 0.00 | 40 | 1010.1 |
| 20260503150328 | 53 | 309 | 0.9 | 7.0 | 0.00 | 0.00 | 0.00 | 41 | 1010.7 |
| 20260503130325 | 50 | 253 | 0.9 | 7.8 | 0.00 | 0.00 | 0.00 | 54 | 1010.7 |
| 20260503110356 | 45 | 292 | 0.9 | 6.1 | 0.00 | 0.00 | 0.00 | 57 | 1010.0 |
| 20260503090339 | 47 | 257 | 1.7 | 3.5 | 0.00 | 0.00 | 0.00 | 54 | 1008.5 |
| 20260503080353 | 48 | 311 | 0.0 | 5.2 | 0.00 | 0.00 | 0.00 | 50 | 1008.5 |
| 20260503071831 | 49 | 6 | 0.9 | 5.2 | 0.00 | 0.00 | 0.00 | 48 | 1008.4 |
| 20260503070344 | 49 | 295 | 0.0 | 2.6 | 0.00 | 0.00 | 0.00 | 48 | 1008.4 |
| 20260503060341 | 50 | 285 | 2.6 | 5.2 | 0.00 | 0.00 | 0.00 | 47 | 1008.6 |
| 20260503054831 | 51 | 13 | 0.9 | 4.3 | 0.00 | 0.00 | 0.00 | 46 | 1008.8 |
| 20260503053327 | 51 | 300 | 0.9 | 8.7 | 0.00 | 0.00 | 0.00 | 46 | 1008.7 |
| 20260503051900 | 51 | 297 | 1.7 | 6.1 | 0.00 | 0.00 | 0.00 | 45 | 1008.8 |
| 20260503050333 | 51 | 278 | 0.9 | 7.0 | 0.00 | 0.00 | 0.00 | 44 | 1009.0 |
| 20260503044905 | 52 | 307 | 0.9 | 2.6 | 0.00 | 0.00 | 0.00 | 45 | 1009.2 |
| 20260503043336 | 52 | 325 | 1.7 | 4.3 | 0.00 | 0.00 | 0.00 | 44 | 1009.3 |
| 20260503041830 | 52 | 290 | 1.7 | 3.5 | 0.00 | 0.00 | 0.00 | 43 | 1009.2 |
| 20260503040401 | 52 | 27 | 0.9 | 5.2 | 0.00 | 0.00 | 0.00 | 43 | 1009.2 |
| 20260503034836 | 53 | 41 | 1.7 | 5.2 | 0.00 | 0.00 | 0.00 | 43 | 1009.2 |
| 20260503033327 | 53 | 310 | 0.9 | 5.2 | 0.00 | 0.00 | 0.00 | 44 | 1009.1 |
| 20260503031841 | 53 | 273 | 1.7 | 7.0 | 0.00 | 0.00 | 0.00 | 42 | 1009.1 |
| 20260503030337 | 53 | 349 | 0.9 | 4.3 | 0.00 | 0.00 | 0.00 | 42 | 1009.1 |
| 20260503024850 | 54 | 5 | 0.0 | 1.7 | 0.00 | 0.00 | 0.00 | 42 | 1009.1 |
| 20260503023325 | 54 | 35 | 0.0 | 2.6 | 0.00 | 0.00 | 0.00 | 43 | 1009.2 |
| 20260503021857 | 54 | 288 | 0.9 | 2.6 | 0.00 | 0.00 | 0.00 | 42 | 1009.0 |
| 20260503020348 | 54 | 291 | 0.0 | 1.7 | 0.00 | 0.00 | 0.00 | 44 | 1009.1 |
| 20260503014903 | 54 | 301 | 0.9 | 2.6 | 0.00 | 0.00 | 0.00 | 42 | 1009.1 |
| 20260503013334 | 54 | 319 | 0.0 | 2.6 | 0.00 | 0.00 | 0.00 | 42 | 1009.2 |
| 20260503011832 | 55 | 308 | 0.0 | 3.5 | 0.00 | 0.00 | 0.00 | 41 | 1009.1 |
| 20260503010344 | 54 | 278 | 0.9 | 3.5 | 0.00 | 0.00 | 0.00 | 42 | 1008.9 |
| 20260503004837 | 54 | 299 | 0.0 | 0.0 | 0.00 | 0.00 | 0.00 | 46 | 1008.7 |
| 20260503003333 | 54 | 299 | 0.0 | 0.0 | 0.00 | 0.00 | 0.00 | 45 | 1008.5 |
| 20260503001826 | 55 | 299 | 0.0 | 0.0 | 0.00 | 0.00 | 0.00 | 43 | 1008.4 |
| 20260503000342 | 56 | 299 | 0.0 | 0.0 | 0.00 | 0.00 | 0.00 | 41 | 1008.4 |
| 20260502234833 | 57 | 321 | 0.0 | 1.7 | 0.00 | 0.00 | 0.00 | 41 | 1008.3 |
| 20260502233329 | 57 | 304 | 0.0 | 1.7 | 0.00 | 0.00 | 0.00 | 41 | 1008.4 |
| 20260502231841 | 58 | 10 | 0.0 | 1.7 | 0.00 | 0.00 | 0.00 | 40 | 1008.3 |
| 20260502230352 | 58 | 351 | 0.9 | 1.7 | 0.00 | 0.00 | 0.00 | 40 | 1008.3 |
| 20260502224827 | 59 | 281 | 0.9 | 4.3 | 0.00 | 0.00 | 0.00 | 38 | 1008.2 |
| 20260502223341 | 60 | 151 | 0.0 | 0.9 | 0.00 | 0.00 | 0.00 | 38 | 1008.0 |
| 20260502221857 | 60 | 319 | 0.0 | 0.0 | 0.00 | 0.00 | 0.00 | 38 | 1008.0 |